Weather History for Wayne, NE

Change the Weather History Date:

Thursday, March 7, 2013

  Actual Average (KOFK) Record (KOFK)
Temperature  
Mean Temperature 34 °F 34 °F  
Max Temperature 47 °F 44 °F 75 °F (1987)
Min Temperature 22 °F 23 °F -17 °F (1943)
Degree Days  
Heating Degree Days 30 31  
Month to date heating degree days 227  
Since 1 July heating degree days 5320  
Cooling Degree Days 0 0  
Month to date cooling degree days 0  
Year to date cooling degree days 0  
Moisture  
Dew Point 26 °F    
Average Humidity 77    
Maximum Humidity 92    
Minimum Humidity 52    
Precipitation  
Precipitation 0.00 in 0.04 in 0.62 in (1911)
Month to date precipitation 0.27  
Year to date precipitation 1.62  
Snow  
Snow 0.00 in 0.20 in - ()
Month to date snowfall 1.3  
Since 1 July snowfall 24.1  
Snow Depth -    
Sea Level Pressure  
Sea Level Pressure 30.14 in    
Wind  
Wind Speed 14 mph (SE)    
Max Wind Speed 24 mph    
Max Gust Speed 29 mph    
Visibility 10 miles    
Events      
T = Trace of Precipitation, MM = Missing Value Source: NWS Daily Summary

Daily Weather History Graph

Daily Weather History Graph

Search for Another Location

Airport:

Trip Planner

Search our weather history database for the weather conditions in past years. The results will help you decide how hot, cold, wet, or windy it might be!

Date:

Astronomy

Mar. 07, 2013 Rise Set
Actual Time 6:52 AM CST 6:25 PM CST
Civil Twilight 6:24 AM CST 6:53 PM CST
Nautical Twilight 5:52 AM CST 7:25 PM CST
Astronomical Twilight 5:19 AM CST 7:58 PM CST
Moon 3:57 AM CST (3/7) 2:10 PM CST (3/7)
Length of Visible Light 12h 28m
Length of Day
11h 32m
Waning Crescent, 20% of the Moon is Illuminated
Mar 7
Waning Crescent
Mar 11
New
Mar 19
First Quarter
Mar 27
Full
Apr 2
Last Quarter

Hourly Weather History & Observations

Time (CST) Temp. Windchill Dew Point Humidity Pressure Visibility Wind Dir Wind Speed Gust Speed Precip Events Conditions
12:15 AM 25.7 °F 13.5 °F 23.0 °F 89% 30.20 in 10.0 mi SE 15.0 mph - N/A   Clear
12:35 AM 25.7 °F 15.7 °F 23.0 °F 89% 30.20 in 10.0 mi SE 10.4 mph - N/A   Clear
12:55 AM 25.3 °F 14.1 °F 22.8 °F 90% 30.21 in 10.0 mi SE 12.7 mph - N/A   Clear
1:15 AM 25.3 °F 14.7 °F 22.8 °F 90% 30.20 in 10.0 mi SE 11.5 mph - N/A   Clear
1:35 AM 24.8 °F 14.6 °F 22.5 °F 91% 30.22 in 10.0 mi SE 10.4 mph - N/A   Clear
1:55 AM 24.6 °F 14.4 °F 22.1 °F 90% 30.22 in 10.0 mi SE 10.4 mph - N/A   Clear
2:15 AM 24.4 °F 14.9 °F 22.1 °F 91% 30.21 in 10.0 mi SE 9.2 mph - N/A   Clear
2:35 AM 24.1 °F 13.1 °F 21.9 °F 91% 30.20 in 10.0 mi SE 11.5 mph - N/A   Clear
2:55 AM 23.7 °F 12.6 °F 21.7 °F 92% 30.19 in 10.0 mi SE 11.5 mph - N/A   Clear
3:15 AM 23.9 °F 12.9 °F 21.9 °F 92% 30.18 in 10.0 mi ESE 11.5 mph - N/A   Clear
3:35 AM 23.7 °F 11.5 °F 21.6 °F 91% 30.18 in 10.0 mi ESE 13.8 mph 17.3 mph N/A   Clear
3:55 AM 23.5 °F 10.8 °F 21.4 °F 91% 30.17 in 10.0 mi SE 15.0 mph 18.4 mph N/A   Clear
4:15 AM 23.4 °F 10.6 °F 21.2 °F 91% 30.17 in 10.0 mi SE 15.0 mph - N/A   Clear
4:35 AM 23.0 °F 10.6 °F 21.0 °F 92% 30.17 in 10.0 mi SE 13.8 mph - N/A   Clear
4:55 AM 22.8 °F 11.5 °F 20.7 °F 91% 30.17 in 10.0 mi SE 11.5 mph - N/A   Clear
5:15 AM 22.8 °F 10.4 °F 20.3 °F 90% 30.17 in 10.0 mi SE 13.8 mph - N/A   Clear
5:35 AM 22.8 °F 11.5 °F 20.3 °F 90% 30.19 in 10.0 mi SE 11.5 mph - N/A   Clear
5:55 AM 22.6 °F 11.3 °F 20.1 °F 90% 30.19 in 10.0 mi SE 11.5 mph - N/A   Clear
6:15 AM 22.5 °F 11.1 °F 19.9 °F 90% 30.18 in 10.0 mi SE 11.5 mph - N/A   Clear
6:35 AM 22.1 °F 10.6 °F 19.8 °F 91% 30.19 in 10.0 mi SE 11.5 mph - N/A   Clear
6:55 AM 22.1 °F 10.6 °F 19.8 °F 91% 30.20 in 10.0 mi SE 11.5 mph - N/A   Clear
7:15 AM 22.1 °F 10.6 °F 19.8 °F 91% 30.20 in 10.0 mi SE 11.5 mph - N/A   Clear
7:35 AM 22.8 °F 10.4 °F 20.1 °F 89% 30.20 in 10.0 mi SE 13.8 mph 17.3 mph N/A   Clear
7:55 AM 23.7 °F 10.5 °F 21.0 °F 89% 30.19 in 10.0 mi SE 16.1 mph 19.6 mph N/A   Clear
8:15 AM 24.6 °F 11.7 °F 21.4 °F 87% 30.18 in 10.0 mi SE 16.1 mph 20.7 mph N/A   Clear
8:35 AM 25.5 °F 12.4 °F 21.9 °F 86% 30.18 in 10.0 mi SE 17.3 mph 21.9 mph N/A   Clear
8:55 AM 26.4 °F 12.5 °F 22.3 °F 84% 30.17 in 10.0 mi SSE 20.7 mph - N/A   Clear
9:15 AM 27.5 °F 13.5 °F 22.8 °F 83% 30.16 in 10.0 mi SSE 21.9 mph 28.8 mph N/A   Clear
9:35 AM 28.4 °F 14.4 °F 23.4 °F 81% 30.17 in 10.0 mi SSE 23.0 mph 27.6 mph N/A   Clear
9:55 AM 29.1 °F 15.7 °F 23.7 °F 80% 30.16 in 10.0 mi SSE 21.9 mph - N/A   Clear
10:15 AM 30.0 °F 16.3 °F 24.8 °F 81% 30.15 in 10.0 mi SSE 24.2 mph - N/A   Clear
10:35 AM 31.6 °F 18.4 °F 25.3 °F 78% 30.15 in 10.0 mi SSE 24.2 mph - N/A   Clear
10:55 AM 32.5 °F 20.5 °F 26.6 °F 79% 30.14 in 10.0 mi SSE 20.7 mph - N/A   Clear
11:15 AM 34.0 °F 22.4 °F 27.5 °F 77% 30.13 in 10.0 mi SSE 20.7 mph 24.2 mph N/A   Clear
11:35 AM 36.5 °F 26.3 °F 27.9 °F 71% 30.13 in 10.0 mi SSE 18.4 mph 24.2 mph N/A   Clear
11:55 AM 37.8 °F 27.7 °F 28.4 °F 69% 30.12 in 10.0 mi SSE 19.6 mph 26.5 mph N/A   Clear
12:15 PM 38.3 °F 27.8 °F 27.3 °F 65% 30.12 in 10.0 mi SSE 21.9 mph - N/A   Clear
12:35 PM 39.0 °F 29.6 °F 28.4 °F 66% 30.12 in 10.0 mi South 18.4 mph - N/A   Clear
12:55 PM 40.1 °F 32.7 °F 28.2 °F 63% 30.13 in 10.0 mi South 12.7 mph 19.6 mph N/A   Clear
1:15 PM 41.0 °F 33.5 °F 28.2 °F 60% 30.11 in 10.0 mi SSE 13.8 mph - N/A   Clear
1:35 PM 42.1 °F 34.5 °F 29.7 °F 61% 30.09 in 10.0 mi SSE 15.0 mph - N/A   Clear
1:55 PM 42.8 °F 34.5 °F 29.1 °F 58% 30.08 in 10.0 mi South 18.4 mph 23.0 mph N/A   Clear
2:15 PM 43.5 °F 36.1 °F 28.9 °F 56% 30.07 in 10.0 mi SSE 16.1 mph 23.0 mph N/A   Clear
2:35 PM 44.6 °F 37.4 °F 30.0 °F 57% 30.06 in 10.0 mi SSE 16.1 mph - N/A   Clear
2:55 PM 45.1 °F 39.1 °F 30.4 °F 56% 30.07 in 10.0 mi SSE 12.7 mph - N/A   Clear
3:15 PM 46.4 °F 39.5 °F 30.7 °F 54% 30.07 in 10.0 mi SSE 17.3 mph - N/A   Clear
3:35 PM 46.8 °F - 30.6 °F 53% 30.08 in 10.0 mi SSE 13.8 mph - N/A   Clear
3:55 PM 46.6 °F - 30.7 °F 54% 30.08 in 10.0 mi SSE 13.8 mph - N/A   Clear
4:15 PM 47.3 °F - 30.2 °F 52% 30.07 in 10.0 mi SSE 11.5 mph - N/A   Clear
4:35 PM 46.4 °F 40.4 °F 30.4 °F 54% 30.07 in 10.0 mi SSE 13.8 mph - N/A   Clear
4:55 PM 46.8 °F - 31.3 °F 55% 30.07 in 10.0 mi SSE 11.5 mph - N/A   Clear
5:15 PM 46.4 °F 41.5 °F 31.3 °F 56% 30.07 in 10.0 mi SE 10.4 mph - N/A   Clear
5:35 PM 44.2 °F 38.8 °F 31.5 °F 61% 30.07 in 10.0 mi SE 10.4 mph - N/A   Clear
5:55 PM 43.0 °F 37.2 °F 31.1 °F 63% 30.08 in 10.0 mi SE 10.4 mph - N/A   Clear
7:35 PM 37.8 °F 30.2 °F 29.5 °F 72% 30.10 in 10.0 mi SE 11.5 mph - N/A   Clear
7:55 PM 37.6 °F 29.6 °F 29.5 °F 73% 30.10 in 10.0 mi SE 12.7 mph - N/A   Clear
8:15 PM 37.2 °F 29.1 °F 29.3 °F 73% 30.11 in 10.0 mi SE 12.7 mph - N/A   Clear
8:35 PM 37.4 °F 29.3 °F 29.1 °F 72% 30.12 in 10.0 mi SE 12.7 mph - N/A   Clear
8:55 PM 37.4 °F 29.8 °F 28.8 °F 71% 30.12 in 10.0 mi SE 11.5 mph - N/A   Clear
9:15 PM 36.5 °F 27.8 °F 28.8 °F 74% 30.12 in 10.0 mi SE 13.8 mph - N/A   Clear
9:35 PM 35.8 °F 26.9 °F 28.9 °F 76% 30.12 in 10.0 mi SE 13.8 mph - N/A   Clear
9:55 PM 35.1 °F 26.9 °F 28.8 °F 78% 30.12 in 10.0 mi SSE 11.5 mph - N/A   Clear
10:15 PM 34.7 °F 26.4 °F 29.1 °F 80% 30.13 in 10.0 mi SE 11.5 mph - N/A   Clear
10:35 PM 34.0 °F 26.6 °F 29.3 °F 83% 30.14 in 10.0 mi SSE 9.2 mph - N/A   Clear
10:55 PM 33.4 °F 27.3 °F 29.1 °F 84% 30.15 in 10.0 mi SSE 6.9 mph - N/A   Clear
11:15 PM 32.9 °F 26.7 °F 29.1 °F 86% 30.16 in 10.0 mi SSE 6.9 mph - N/A   Clear
11:35 PM 32.7 °F 28.3 °F 29.1 °F 87% 30.16 in 10.0 mi SSE 4.6 mph - N/A   Clear
11:55 PM 32.4 °F 27.9 °F 28.8 °F 87% 30.16 in 10.0 mi SE 4.6 mph - N/A   Clear